Location: Rockbourne
(50.9500°N, 1.8333°W)
Time: 04:42:00
(UTC+00:00)

Daily predictions for brighter satellites

Satellite Brightness Start Highest point End
(mag) Time Altitude Azimuth Time Altitude Azimuth Time Altitude Azimuth
ATLAS 3B R/B 4.4 01:27:54 25° NNE 01:27:54 25° NNE 01:31:57 10° ENE
CENTAUR R/B 4.2 01:38:06 35° N 01:38:40 35° NNE 01:46:06 10° E
Cosmos 2322 Rocket 4.3 02:05:38 23° NE 02:05:38 23° NE 02:07:46 10° NE
Cosmos 2360 Rocket 4.1 02:15:12 24° ENE 02:15:12 24° ENE 02:17:59 10° NE
NOSS 3-2 (A) 4.5 02:18:11 54° NE 02:18:11 54° NE 02:26:04 10° ESE
Cosmos 1980 Rocket 4.2 02:21:50 22° N 02:21:50 22° N 02:23:56 10° NNE
Resurs 1-4 Rocket 4.4 02:16:13 10° NNE 02:17:39 19° NNE 02:17:39 19° NNE
USA 267 4.3 02:25:19 10° ENE 02:30:09 37° ESE 02:30:09 37° ESE
COSMOS 2455 4.3 02:36:11 31° E 02:36:11 31° E 02:40:40 10° NE
Cosmos 2278 Rocket 3.8 02:44:55 14° NNW 02:49:01 31° NE 02:54:02 10° ESE
ADEOS II 3.6 02:46:10 10° NNE 02:49:01 33° NNE 02:49:01 33° NNE
ARIANE 5 R/B 4.2 02:47:01 10° NNE 02:49:21 28° NNE 02:49:21 28° NNE
Cosmos 2333 Rocket 3.9 02:55:19 24° ESE 02:56:22 26° ESE 03:00:58 10° NE
CZ-2D R/B 4.2 02:51:29 10° N 02:53:01 19° N 02:53:01 19° N
NOSS 3-1 (A) 4.3 02:59:00 44° N 02:59:00 44° N 03:04:34 10° NE
USA 234 3.3 03:00:59 10° ESE 03:06:32 67° SE 03:06:32 67° SE
SL-16 R/B 3.2 03:17:01 37° N 03:17:01 37° N 03:20:47 10° NNE
NOSS 3-1 (C) 4.5 03:15:24 36° NNW 03:15:28 36° NNW 03:21:54 10° NE
ATLAS 3B R/B 3.3 03:15:12 29° NNW 03:18:25 51° NE 03:25:01 10° ESE
Cosmos 2322 4.0 03:19:21 61° ESE 03:19:21 61° ESE 03:24:51 10° NE
IDEFIX/ARIANE 42P 3.9 03:19:40 10° NNE 03:24:33 37° E 03:27:06 23° SSE
Cosmos 2219 Rocket 3.2 03:23:39 35° SE 03:24:57 40° ESE 03:30:08 10° NE
Meteor 2-21 4.3 03:28:52 84° NNW 03:28:52 84° NNW 03:34:55 10° N
CENTAUR R/B 3.4 03:25:19 22° NW 03:30:46 66° NE 03:39:19 10° ESE
ATLAS 5 CENTAUR R/B 4.0 03:29:35 28° NNW 03:31:06 34° NNE 03:41:39 10° E
Cosmos 2237 Rocket 4.5 03:29:43 10° SSE 03:33:49 21° E 03:37:56 10° NE
Cosmos 2237 4.3 03:34:29 71° N 03:34:29 71° N 03:39:44 10° NNE
Cosmos 2251 Rocket 3.6 03:39:57 75° SE 03:40:06 76° ESE 03:45:30 10° NNE
Lacrosse 4 Rocket 3.8 03:42:02 14° N 03:42:02 14° N 03:43:05 10° NNE
Gblst 52 Del rocket 4.0 03:40:51 83° NNE 03:40:51 83° NNE 03:46:30 10° E
ATLAS 2AS CENTAUR R/B 4.0 03:36:56 17° S 03:42:37 43° ESE 03:50:02 10° NE
BREEZE-M R/B 3.9 03:43:11 57° SSE 03:43:25 58° SSE 03:51:51 10° ENE
USA 238 DEB 3.7 03:42:52 60° W 03:43:54 67° SW 03:51:12 10° SSE
USA 238 3.7 03:42:55 60° W 03:44:00 68° SW 03:51:18 10° SSE
Cosmos 2322 Rocket 3.1 03:47:28 34° NNW 03:47:28 34° NNW 03:51:46 10° NNE
COSMOS 2428 3.1 03:45:13 41° SSE 03:46:57 58° ESE 03:52:31 10° NE
Cosmos 2098 Rocket 4.3 03:45:42 56° SW 03:47:16 70° WNW 03:54:35 10° N
Cosmos 1470 4.0 03:52:50 10° N 03:56:35 41° ENE 04:00:18 10° SE
Cosmos 2360 Rocket 2.4 03:56:59 52° NW 03:56:59 52° NW 04:02:20 10° NNE
SL-08 ROCKET BODY 4.3 03:57:49 62° W 03:58:05 63° WNW 04:04:03 10° N
Resurs 1-4 Rocket 4.2 03:57:24 10° NNW 03:58:44 14° NNW 03:58:44 14° NNW
Cosmos 1842 3.6 04:02:09 65° ENE 04:02:09 65° ENE 04:05:54 10° NNE
Cosmos 1980 Rocket 4.1 04:03:37 15° NNW 04:04:01 15° NNW 04:07:15 10° N
Cosmos 1709 Rocket 3.9 04:02:05 39° SSW 04:04:34 76° W 04:10:58 10° N
NOSS 3-2 (A) 4.0 04:05:40 32° WNW 04:09:22 59° SW 04:17:29 10° SSE
Meteor 2-21 Rocket 4.5 04:08:49 50° WSW 04:09:59 58° WNW 04:16:07 10° N
H-2A R/B 3.2 04:06:15 10° NNE 04:10:18 52° E 04:13:27 17° S
ERBS 4.0 04:11:12 26° SE 04:11:19 27° SE 04:14:13 10° ENE
Cosmos 1066 Rocket 4.5 04:14:39 44° WNW 04:14:39 44° WNW 04:19:45 10° N
USA 267 3.2 04:08:17 10° ENE 04:14:52 84° NNW 04:17:29 40° WSW
NOSS 2-2 (E) 3.2 04:16:35 81° SSW 04:16:46 86° SE 04:21:13 10° NE
Spot 2 3.7 04:12:47 10° NNE 04:16:52 79° WNW 04:16:54 79° W
ADEOS 3.5 04:12:42 10° NNE 04:17:58 87° WNW 04:21:05 25° SSW
CZ-2C R/B 3.5 04:13:53 10° NNE 04:18:56 48° E 04:23:55 10° S
COSMOS 2455 2.9 04:19:21 45° WSW 04:21:02 61° NW 04:27:02 10° NNE
Cosmos 1943 Rocket 4.3 04:18:33 10° NNW 04:23:01 23° NE 04:27:29 10° E
CBERS 1 LM4 rocket 4.5 04:19:04 10° N 04:24:08 57° WNW 04:25:15 46° WSW
USA 32 4.0 04:24:59 10° S 04:30:13 85° E 04:35:30 10° N
ADEOS II 3.5 04:26:41 10° N 04:29:56 22° NW 04:29:56 22° NW
ARIANE 5 R/B 4.0 04:26:57 10° N 04:29:41 20° NW 04:29:41 20° NW
Cosmos 292 Rocket 3.7 04:28:29 17° NNW 04:32:06 60° WSW 04:36:49 10° S
NOSS 3-2 (C) 4.0 04:26:42 17° NW 04:32:40 61° SW 04:40:51 10° SSE
NOSS 0 Rocket 4.3 04:26:44 10° SSW 04:32:49 66° ESE 04:38:58 10° NE
Cosmos 2297 4.5 04:27:16 10° NNW 04:32:56 53° NE 04:38:32 10° SE
Cosmos 2228 4.0 04:29:02 10° N 04:33:11 47° ENE 04:37:17 10° SSE
PSLV R/B 3.5 04:29:07 10° N 04:33:19 60° WNW 04:34:17 46° WSW
Cosmos 2278 Rocket 2.1 04:27:53 10° NW 04:33:31 63° WSW 04:39:06 10° SSE
Cosmos 44 2.9 04:33:09 48° WNW 04:34:06 61° SW 04:38:21 10° SSE
Cosmos 44 Rocket 4.1 04:32:38 13° NNW 04:36:43 47° NE 04:41:15 10° ESE
Cosmos 1025 Rocket 2.9 04:35:01 32° SSW 04:36:53 68° WNW 04:41:10 10° N
Cosmos 2333 Rocket 2.2 04:37:22 30° SW 04:40:12 65° NW 04:45:54 10° NNE
Cosmos 1378 4.1 04:41:29 32° NW 04:41:29 32° NW 04:44:08 10° N
Cosmos 2074 Rocket 4.0 04:35:12 10° S 04:41:27 88° E 04:47:43 10° N
Cosmos 921 Rocket 3.3 04:42:57 41° WSW 04:42:57 41° WSW 04:46:56 10° S
Aureole 1 Rocket 3.7 04:41:14 25° SW 04:44:41 57° WNW 04:49:24 10° NNE
Cosmos 2058 Rocket 4.4 04:41:29 10° N 04:45:40 41° ENE 04:49:52 10° SE
Cosmos 2181 Rocket 4.3 04:41:02 10° NNW 04:46:56 41° W 04:52:44 10° SSW
CZ-4B R/B 3.3 04:44:25 10° NNE 04:48:31 64° ESE 04:52:22 10° S
USA 234 3.9 04:45:21 10° SSE 04:51:07 33° SW 04:53:54 24° W
Meteor 1-21 4.2 04:45:48 10° SSW 04:51:20 64° WNW 04:56:58 10° N
Cosmos 389 Rocket 2.6 04:49:09 10° S 04:52:33 73° E 04:56:01 10° NNE
NOSS 3-4 (A) 3.9 04:46:39 10° SSW 04:52:36 63° SE 04:58:57 10° NE
NOSS 3-4 (C) 3.9 04:46:43 10° SSW 04:52:41 62° SE 04:59:02 10° NE
NOSS 2-2 (D) 3.4 04:53:36 35° WSW 04:55:00 59° NW 04:59:27 10° NE
Cosmos 2344 4.5 04:46:56 10° NW 04:56:12 79° NE 05:09:08 10° SE
Cosmos 1536 Rocket 4.0 04:55:21 28° WSW 04:56:54 39° WNW 05:01:01 10° N
PAYLOAD A 3.8 04:55:03 10° N 04:59:50 69° WNW 05:04:45 10° SSW
Cosmos 1140 Rocket 4.0 04:54:47 10° S 04:59:54 63° ESE 05:05:01 10° NNE
SL-16 R/B 4.0 04:58:54 14° NW 05:00:48 16° NNW 05:04:15 10° N
Cosmos 1953 2.2 04:56:53 10° NNW 05:00:54 67° W 05:04:53 10° S
GENESIS II 4.4 05:01:19 28° WSW 05:03:16 57° NW 05:07:20 10° NE
IDEFIX/ARIANE 42P 3.1 04:59:19 10° N 05:04:10 39° WNW 05:07:54 16° SW
Cosmos 614 Rocket 3.9 04:59:29 10° SSW 05:04:44 87° WNW 05:09:59 10° NNE
MSX 3.9 04:59:29 10° N 05:05:07 57° WNW 05:10:42 10° SW
SKYMED 2 3.7 05:02:52 10° SSE 05:07:12 78° ENE 05:11:34 10° NNW
Cosmos 1758 3.9 05:05:00 10° NNW 05:08:36 33° W 05:12:12 10° SSW
Cosmos 2219 Rocket 2.6 05:05:25 20° WSW 05:08:53 43° NW 05:14:14 10° NNE
ATLAS 3B R/B 2.8 05:02:45 10° NW 05:09:12 52° WSW 05:15:48 10° SSE
Cosmos 1356 3.3 05:12:13 10° NNW 05:15:41 81° W 05:19:08 10° S
Cosmos 1892 Rocket 3.9 05:11:27 10° S 05:15:51 69° E 05:20:15 10° NNE
BREEZE-M DEB (TANK) 2.0 05:15:00 28° WSW 05:16:00 61° S 05:18:34 10° E
Meteor PRIRODA 3.6 05:12:31 10° NNE 05:16:18 89° E 05:20:02 10° SSW
Cosmos 2237 Rocket 2.2 05:11:33 10° SSW 05:17:15 78° WNW 05:22:59 10° NNE
GP-B 3.1 05:16:06 10° S 05:20:33 88° W 05:25:01 10° N
Cosmos 1908 3.9 05:17:33 10° N 05:21:22 57° ENE 05:25:08 10° SSE
CENTAUR R/B 3.4 05:13:59 10° NW 05:21:32 47° WSW 05:29:40 10° S
BREEZE-M DEB (TANK) 3.6 05:22:09 17° SW 05:22:39 18° SSW 05:24:24 10° SSE
Meteor 1-31 Rocket 2.9 05:20:49 10° N 05:24:31 50° WNW 05:28:11 10° SW
In-Cosmos 22 4.3 05:20:14 10° S 05:25:35 79° E 05:31:05 10° NNE
Cosmos 1606 Rocket 3.7 05:21:35 10° NNW 05:25:44 46° W 05:29:52 10° SSW
Cosmos 2369 Rocket 3.3 05:24:38 10° NNW 05:30:02 45° NE 05:35:23 10° SE
RESURS DK-1 3.3 05:26:35 10° SSW 05:30:35 52° ESE 05:34:38 10° NE
COSMOS 2428 3.5 05:27:16 14° WSW 05:31:32 33° NW 05:36:40 10° NNE
NOSS 2-2 (C) 4.2 05:29:10 16° W 05:31:49 36° NNW 05:36:08 10° NE
Cosmos 1470 4.1 05:29:31 10° NW 05:32:23 19° W 05:35:13 10° SW
Cosmos 2322 Rocket 4.2 05:29:52 10° NW 05:32:25 13° NNW 05:34:58 10° N
Gblst 52 Del rocket 4.3 05:27:48 14° WNW 05:32:30 69° SSW 05:38:25 10° ESE
Meteor 2-10 4.0 05:27:40 10° NNW 05:32:49 71° W 05:38:05 10° S
ATLAS 2AS CENTAUR R/B 3.1 05:25:23 10° SW 05:33:25 69° NW 05:41:25 10° NE
SJ-12 4.1 05:30:03 10° NNE 05:34:10 75° ESE 05:38:15 10° S
Cosmos 1980 3.8 05:28:44 10° SW 05:34:18 58° NW 05:39:55 10° NNE
Cosmos 1023 Rocket 4.4 05:29:25 10° SSW 05:34:35 71° WNW 05:39:44 10° NNE
CZ-4B R/B 4.2 05:31:15 10° N 05:34:57 41° WNW 05:38:47 10° SW
Cosmos 1707 3.3 05:32:36 10° SW 05:36:14 36° WNW 05:39:53 10° N
CZ-4B R/B 4.0 05:31:24 10° NNE 05:36:39 56° ESE 05:41:50 10° S
Cosmos 1484 Rocket 2.6 05:37:42 10° N 05:41:29 70° WNW 05:45:16 10° SSW
Cosmos 2360 Rocket 3.9 05:38:46 10° WNW 05:42:11 16° NNW 05:45:42 10° N
Okean 1-7 Rocket 3.6 05:39:05 10° SSW 05:43:30 66° WNW 05:48:00 10° N
Cosmos 676 Rocket 4.0 05:38:25 10° SSW 05:43:42 76° WNW 05:48:59 10° NNE
Cosmos 2154 Rocket 4.1 05:37:57 10° SSW 05:44:01 57° WNW 05:50:10 10° N
H-2A R/B 3.8 05:42:26 10° NNW 05:45:31 21° WNW 05:48:39 10° WSW
Cosmos 1763 Rocket 3.8 05:41:18 10° NNW 05:46:32 71° ENE 05:51:38 10° SSE
ERBS 2.4 05:44:15 11° WSW 05:47:30 59° NNW 05:50:53 10° NE
Cosmos 1626 Rocket 4.3 05:48:56 10° S 05:53:09 59° E 05:57:26 10° NNE
USA 116 3.7 05:49:48 10° S 05:53:29 49° WSW 05:56:50 10° NNW
Cosmos 1726 2.5 05:50:10 10° NNW 05:53:37 40° W 05:57:03 10° SSW
Cosmos 1190 Rocket 4.4 05:48:56 10° SW 05:53:59 43° WNW 05:59:03 10° NNE
COSMO-SKYMED 1 3.1 05:51:24 10° SSW 05:55:25 37° W 05:59:29 10° NNW
Cosmos 407 Rocket 4.0 05:51:07 10° WSW 05:55:53 37° NW 06:00:40 10° NNE
ALOS 2.3 05:51:38 10° NNE 05:56:21 89° ESE 06:01:01 10° SSW
CZ-2C R/B 3.3 05:52:27 10° N 05:56:58 31° WNW 06:01:29 10° WSW
USA 267 3.6 05:51:17 10° ENE 05:57:37 55° N 06:03:57 10° W
Meteor 1-24 Rocket 4.3 05:51:57 10° S 05:57:39 69° E 06:03:36 10° NNE
Cosmos 1727 Rocket 4.4 05:53:37 10° N 05:59:50 72° ENE 06:06:05 10° SSE
BREEZE-M DEB (TANK) 1.7 06:01:21 10° W 06:04:52 66° S 06:07:02 10° ESE
Cosmos 1674 2.6 06:01:21 10° SSW 06:05:03 65° WNW 06:08:46 10° N
Cosmos 1943 Rocket 2.3 06:01:54 10° NNW 06:07:37 86° ENE 06:13:18 10° SSE
Cosmos 2341 Rocket 4.1 06:01:47 10° SSW 06:07:58 62° WNW 06:14:09 10° N
